DeKalb, IL

3:51 AM CDT on September 21, 2017 (GMT -0500)
De Kalb Taylor Municipal

Weather History for KDKB - February, 2013

Change the Weather History Date:

Wednesday, February 13, 2013

  Actual Average (KARR) Record (KARR)
Temperature  
Mean Temperature 28 °F -  
Max Temperature 39 °F 33 °F 44 °F (2005)
Min Temperature 18 °F 18 °F -4 °F (2015)
Degree Days  
Heating Degree Days 36    
Moisture  
Dew Point 26 °F    
Average Humidity 86    
Maximum Humidity 92    
Minimum Humidity 71    
Precipitation  
Precipitation 0.00 in - - ()
Sea Level Pressure  
Sea Level Pressure 29.77 in    
Wind  
Wind Speed 8 mph (SSW)    
Max Wind Speed 14 mph    
Max Gust Speed -    
Visibility 7 miles    
Events      
Averages and records for this station are not official NWS values.
T = Trace of Precipitation, MM = Missing Value Source: NWS Daily Summary

Daily Weather History Graph

Daily Weather History Graph

Search for Another Location

Airport or City:

Trip Planner

Search our weather history database for the weather conditions in past years. The results will help you decide how hot, cold, wet, or windy it might be!

Date:

Astronomy

Feb. 13, 2013 Rise Set
Actual Time 6:52 AM CST 5:25 PM CST
Civil Twilight 6:24 AM CST 5:54 PM CST
Nautical Twilight 5:51 AM CST 6:27 PM CST
Astronomical Twilight 5:19 AM CST 6:59 PM CST
Moon 8:17 AM CST (2/13) 9:33 PM CST (2/13)
Length of Visible Light 11h 30m
Length of Day
10h 32m
Waxing Crescent, 14% of the Moon is Illuminated
Feb 13
Waxing Crescent
Feb 17
First Quarter
Feb 25
Full
Mar 4
Last Quarter
Mar 11
New

Hourly Weather History & Observations

Time (CST) Temp. Windchill Dew Point Humidity Pressure Visibility Wind Dir Wind Speed Gust Speed Precip Events Conditions
12:15 AM 21.2 °F 11.7 °F 18.5 °F 89% 29.89 in 7.0 mi South 8.1 mph - N/A   Clear
12:35 AM 22.1 °F 12.8 °F 19.4 °F 89% 29.89 in 7.0 mi South 8.1 mph - N/A   Clear
12:55 AM 22.5 °F 13.2 °F 19.8 °F 89% 29.87 in 7.0 mi South 8.1 mph - N/A   Clear
1:15 AM 21.2 °F 11.7 °F 18.5 °F 89% 29.86 in 5.0 mi South 8.1 mph - N/A   Clear
1:35 AM 20.8 °F 11.2 °F 18.3 °F 90% 29.86 in 5.0 mi South 8.1 mph - N/A   Clear
1:55 AM 22.1 °F 12.0 °F 19.8 °F 91% 29.86 in 5.0 mi South 9.2 mph - N/A   Clear
2:15 AM 22.1 °F 12.0 °F 19.4 °F 89% 29.85 in 5.0 mi South 9.2 mph - N/A   Clear
2:35 AM 21.7 °F 11.5 °F 19.2 °F 90% 29.84 in 4.0 mi South 9.2 mph - N/A   Clear
2:55 AM 21.6 °F 11.3 °F 19.0 °F 90% 29.83 in 4.0 mi South 9.2 mph - N/A   Clear
3:15 AM 21.2 °F 10.9 °F 18.9 °F 91% 29.82 in 4.0 mi South 9.2 mph - N/A   Clear
3:35 AM 21.2 °F 11.7 °F 18.7 °F 90% 29.82 in 4.0 mi South 8.1 mph - N/A   Clear
3:55 AM 21.0 °F 12.4 °F 18.5 °F 90% 29.81 in 4.0 mi South 6.9 mph - N/A   Clear
4:15 AM 20.7 °F 10.2 °F 18.3 °F 91% 29.81 in 4.0 mi South 9.2 mph - N/A   Clear
4:35 AM 21.2 °F 11.7 °F 18.9 °F 91% 29.80 in 3.0 mi South 8.1 mph - N/A   Clear
4:55 AM 21.2 °F 11.7 °F 19.0 °F 91% 29.79 in 3.0 mi South 8.1 mph - N/A   Clear
5:15 AM 20.8 °F 12.1 °F 18.5 °F 91% 29.79 in 3.0 mi South 6.9 mph - N/A   Clear
5:35 AM 20.1 °F 12.3 °F 17.6 °F 90% 29.79 in 3.0 mi South 5.8 mph - N/A   Clear
5:55 AM 20.3 °F 13.8 °F 18.0 °F 91% 29.78 in 3.0 mi South 4.6 mph - N/A   Clear
6:15 AM 19.8 °F 13.2 °F 17.4 °F 91% 29.78 in 3.0 mi South 4.6 mph - N/A   Clear
6:35 AM 20.1 °F 13.6 °F 18.0 °F 91% 29.77 in 3.0 mi South 4.6 mph - N/A   Clear
6:55 AM 18.9 °F 10.8 °F 16.5 °F 91% 29.77 in 1.8 mi South 5.8 mph - N/A   Mist
7:15 AM 19.4 °F 10.4 °F 17.1 °F 91% 29.77 in 2.0 mi South 6.9 mph - N/A   Clear
7:35 AM 21.2 °F 12.6 °F 18.9 °F 91% 29.77 in 2.0 mi South 6.9 mph - N/A   Clear
7:55 AM 23.2 °F 16.0 °F 21.0 °F 91% 29.78 in 2.5 mi South 5.8 mph - N/A   Clear
8:15 AM 24.8 °F 17.9 °F 22.5 °F 91% 29.78 in 2.0 mi South 5.8 mph - N/A   Clear
8:35 AM 26.6 °F 20.0 °F 24.3 °F 91% 29.78 in 2.5 mi South 5.8 mph - N/A   Clear
8:55 AM 28.0 °F 20.8 °F 25.5 °F 90% 29.77 in 3.0 mi SSW 6.9 mph - N/A   Clear
9:15 AM 30.2 °F 24.3 °F 27.5 °F 90% 29.77 in 3.0 mi SSW 5.8 mph - N/A   Clear
9:35 AM 31.3 °F 23.9 °F 27.9 °F 87% 29.77 in 5.0 mi SW 8.1 mph - N/A   Clear
9:55 AM 32.5 °F 26.2 °F 28.9 °F 87% 29.77 in 7.0 mi WSW 6.9 mph - N/A   Clear
10:15 AM 33.8 °F 27.7 °F 29.7 °F 85% 29.76 in 7.0 mi SW 6.9 mph - N/A   Clear
10:35 AM 34.3 °F 30.2 °F 29.1 °F 81% 29.76 in 10.0 mi SSW 4.6 mph - N/A   Clear
10:55 AM 35.2 °F 29.5 °F 29.5 °F 80% 29.76 in 7.0 mi South 6.9 mph - N/A   Clear
11:15 AM 35.8 °F 29.4 °F 30.0 °F 80% 29.76 in 7.0 mi South 8.1 mph - N/A   Clear
11:35 AM 36.5 °F 30.3 °F 30.7 °F 80% 29.75 in 7.0 mi South 8.1 mph - N/A   Clear
11:55 AM 36.7 °F 30.5 °F 30.7 °F 79% 29.74 in 10.0 mi SSW 8.1 mph - N/A   Clear
12:15 PM 37.6 °F 31.0 °F 31.5 °F 79% 29.74 in 10.0 mi SSW 9.2 mph - N/A   Clear
1:15 PM 39.0 °F 32.3 °F 31.6 °F 75% 29.72 in 10.0 mi SW 10.4 mph - N/A   Clear
1:35 PM 39.9 °F 33.4 °F 32.0 °F 73% 29.72 in 10.0 mi WSW 10.4 mph - N/A   Clear
1:55 PM 39.2 °F 33.0 °F 31.8 °F 75% 29.72 in 10.0 mi WSW 9.2 mph - N/A   Clear
2:15 PM 39.6 °F 33.5 °F 30.9 °F 71% 29.71 in 10.0 mi WSW 9.2 mph - N/A   Clear
2:35 PM 39.7 °F 33.7 °F 31.6 °F 73% 29.71 in 10.0 mi WSW 9.2 mph - N/A   Clear
2:55 PM 39.0 °F 31.4 °F 30.9 °F 73% 29.71 in 10.0 mi WSW 12.7 mph - N/A   Clear
3:15 PM 37.9 °F 29.6 °F 31.1 °F 76% 29.72 in 10.0 mi West 13.8 mph - N/A   Clear
3:35 PM 37.2 °F 29.6 °F 30.7 °F 77% 29.72 in 10.0 mi WSW 11.5 mph - N/A   Clear
3:55 PM 37.6 °F 31.0 °F 31.6 °F 79% 29.72 in 10.0 mi WSW 9.2 mph - N/A   Clear
4:15 PM 37.8 °F 30.7 °F 31.6 °F 79% 29.72 in 10.0 mi WSW 10.4 mph - N/A   Clear
4:35 PM 37.6 °F 31.0 °F 31.5 °F 79% 29.72 in 10.0 mi WSW 9.2 mph - N/A   Clear
4:55 PM 36.5 °F 29.2 °F 31.1 °F 81% 29.73 in 10.0 mi WSW 10.4 mph - N/A   Clear
5:15 PM 35.2 °F 29.5 °F 30.7 °F 84% 29.73 in 10.0 mi WSW 6.9 mph - N/A   Clear
5:35 PM 35.1 °F 28.6 °F 31.1 °F 85% 29.74 in 10.0 mi WSW 8.1 mph - N/A   Clear
5:55 PM 34.0 °F 28.8 °F 30.6 °F 87% 29.74 in 10.0 mi WSW 5.8 mph - N/A   Clear
6:15 PM 33.1 °F 27.7 °F 29.8 °F 88% 29.75 in 10.0 mi West 5.8 mph - N/A   Scattered Clouds
6:35 PM 33.3 °F 28.9 °F 29.8 °F 87% 29.75 in 10.0 mi WSW 4.6 mph - N/A   Mostly Cloudy
6:55 PM 33.4 °F 28.1 °F 30.0 °F 87% 29.76 in 10.0 mi WSW 5.8 mph - N/A   Overcast
7:15 PM 33.3 °F 27.9 °F 30.0 °F 88% 29.76 in 10.0 mi WSW 5.8 mph - N/A   Overcast
7:35 PM 33.3 °F 28.9 °F 30.0 °F 88% 29.76 in 7.0 mi WSW 4.6 mph - N/A   Overcast
7:55 PM 33.3 °F 27.9 °F 30.0 °F 88% 29.75 in 10.0 mi WSW 5.8 mph - N/A   Overcast
8:15 PM 33.3 °F 28.9 °F 30.0 °F 88% 29.75 in 10.0 mi SW 4.6 mph - N/A   Overcast
8:35 PM 32.0 °F 27.5 °F 29.1 °F 89% 29.74 in 7.0 mi South 4.6 mph - N/A   Overcast
8:55 PM 32.0 °F 28.7 °F 29.3 °F 90% 29.74 in 7.0 mi SSW 3.5 mph - N/A   Overcast
9:15 PM 31.8 °F 26.2 °F 28.9 °F 89% 29.74 in 5.0 mi South 5.8 mph - N/A   Overcast
9:35 PM 31.8 °F 27.3 °F 29.1 °F 90% 29.74 in 5.0 mi SSW 4.6 mph - N/A   Overcast
9:55 PM 32.0 °F 27.5 °F 29.3 °F 90% 29.74 in 5.0 mi South 4.6 mph - N/A   Overcast
10:15 PM 32.0 °F 27.5 °F 29.3 °F 90% 29.74 in 7.0 mi South 4.6 mph - N/A   Overcast
10:35 PM 32.0 °F 27.5 °F 29.3 °F 90% 29.73 in 7.0 mi South 4.6 mph - N/A   Overcast
10:55 PM 31.6 °F 26.0 °F 28.9 °F 90% 29.73 in 5.0 mi South 5.8 mph - N/A   Overcast
11:15 PM 31.5 °F 24.9 °F 28.9 °F 90% 29.72 in 5.0 mi South 6.9 mph - N/A   Overcast
11:35 PM 31.8 °F 24.6 °F 29.3 °F 90% 29.72 in 7.0 mi South 8.1 mph - N/A   Overcast
11:55 PM 32.4 °F 25.3 °F 30.2 °F 92% 29.72 in 7.0 mi South 8.1 mph - N/A   Overcast